This is the latest recevied weather packets stored in our database for station/object CE3TDM-12. If no packets are shown the sender has not sent any weather packets the latest 10 day(s).
| Time | Temp. | Humidity | Pressure | Rain* | Wind** | Luminosity | Snow |
|---|---|---|---|---|---|---|---|
| 1777989067 | 21.67° C | 31% | 778.4 hPa | - | - | - | - |
| 1777988767 | 22.22° C | 31% | 778.5 hPa | - | - | - | - |
| 1777988467 | 23.33° C | 30% | 778.5 hPa | - | - | - | - |
| 1777988166 | 23.33° C | 30% | 778.5 hPa | - | - | - | - |
| 1777987866 | 22.78° C | 30% | 778.6 hPa | - | - | - | - |
| 1777987565 | 23.33° C | 29% | 778.5 hPa | - | - | - | - |
| 1777987265 | 23.33° C | 29% | 778.6 hPa | - | - | - | - |
| 1777986964 | 22.22° C | 29% | 778.7 hPa | - | - | - | - |
| 1777986664 | 21.11° C | 30% | 778.6 hPa | - | - | - | - |
| 1777986363 | 19.44° C | 30% | 778.7 hPa | - | - | - | - |
| 1777986063 | 18.33° C | 30% | 778.8 hPa | - | - | - | - |
| 1777985763 | 17.22° C | 31% | 778.9 hPa | - | - | - | - |
| 1777985462 | 15.56° C | 31% | 779 hPa | - | - | - | - |
| 1777985162 | 15° C | 31% | 779 hPa | - | - | - | - |
| 1777984861 | 14.44° C | 32% | 778.9 hPa | - | - | - | - |
| 1777984561 | 15° C | 31% | 779.1 hPa | - | - | - | - |
| 1777984260 | 15° C | 31% | 779 hPa | - | - | - | - |
| 1777983953 | 15° C | 31% | 779.1 hPa | - | - | - | - |
| 1777983651 | 15° C | 31% | 779.1 hPa | - | - | - | - |
| 1777983350 | 15° C | 32% | 779 hPa | - | - | - | - |
| 1777980316 | 14.44° C | 31% | 778.6 hPa | - | - | - | - |
| 1777979997 | 14.44° C | 31% | 778.4 hPa | - | - | - | - |
| 1777979696 | 14.44° C | 32% | 778.5 hPa | - | - | - | - |
| 1777979396 | 14.44° C | 32% | 778.5 hPa | - | - | - | - |
| 1777976550 | 14.44° C | 31% | 777.7 hPa | - | - | - | - |
* Rain since midnight (hover to see other rain measurements)
** Current wind speed in m/s (hover to see current wind gust speed)